AirNav  
 
 467 users online  

ID61 Valenov Ranch Airport
Priest River, Idaho, USA


FAA INFORMATION EFFECTIVE 09 NOVEMBER 2017

Location

FAA Identifier: ID61
Lat/Long: 48-17-47.6720N / 117-00-54.7340W
48-17.794533N / 117-00.912233W
48.2965756 / -117.0152039
(estimated)
Elevation: 2425 ft. / 739 m (estimated)
Variation: 19E (1985)
From city: 8 miles NW of PRIEST RIVER, ID
Time zone: UTC -8 (UTC -7 during Daylight Saving Time)
Zip code: 83856

Airport Operations

Airport use: Private use. Permission required prior to landing
Activation date: 09/1987
Control tower: no
ARTCC: SEATTLE CENTER
FSS: BOISE FLIGHT SERVICE STATION
Attendance: UNATNDD
Wind indicator: yes
Segmented circle: no
Landing fee: yes

Airport Communications

UNICOM: 122.7
WX AWOS-3 at SZT (18 nm E): 135.425 (208-263-3074)

Nearby radio navigation aids

VOR radial/distance  VOR name  Freq  Var
COEr327/32.3COEUR D'ALENE VOR/DME108.8019E

 
NDB name  Hdg/Dist  Freq  Var  ID
SANDPOE257/18.026414ESZT ... --.. -
DEER PARK024/25.736516EDPY -.. .--. -.--
IONE126/29.437921EION .. --- -.

Airport Services

Runway Information

Runway 7/25

Dimensions: 1800 x 50 ft. / 549 x 15 m
Surface: gravel
RUNWAY 7  RUNWAY 25
Traffic pattern: rightleft
Displaced threshold: 1000 ft.no
Obstructions: 375 ft. hill, 500 ft. from runway5 ft. fence, 100 ft. from runway

Airport Ownership and Management from official FAA records

Ownership: Privately-owned
Owner: FRANK D. HONOROF
PO BOX 459
PRIEST RIVER, ID 83856
Manager: P O BOX 509
ATHOL, ID 83801
Phone 208-683-3726

Airport Operational Statistics

Aircraft based on the field: 1
Single engine airplanes: 1
    

Instrument Procedures

There are no published instrument procedures at ID61.

Some nearby airports with instrument procedures:

KSZT - Sandpoint Airport (18 nm E)
KDEW - Deer Park Airport (26 nm SW)
KCOE - Coeur d'Alene Airport - Pappy Boyington Field (32 nm S)
65S - Boundary County Airport (39 nm NE)
KSFF - Felts Field Airport (39 nm S)
 
Loc | Ops | Rwys | IFR | FBO | Links
Com | Nav | Svcs | Stats | Notes


 
Area around ID61 (Valenov Ranch Airport)
 
Road maps at: MapQuest Bing Google
 
Aerial photo
No photo
 
Sectional chart

 
Airport distance calculator
Flying to Valenov Ranch Airport? Find the distance to fly.

From to ID61

Sunrise and sunset
Times for 21-Nov-2017
 Local
(UTC-8)
 Zulu
(UTC)
Morning civil twilight06:3114:31
Sunrise07:0515:05
Sunset16:0300:03
Evening civil twilight16:3700:37

Current date and time
Zulu (UTC)  22-Nov-2017 05:58:14
Local (UTC-8)  21-Nov-2017 21:58:14
 
METAR
KSZT 
18nm E 
220535Z AUTO 00000KT 5SM BR SCT003 SCT009 SCT016 04/04 A3007 RMK AO2
KDEW 
26nm SW 
220553Z AUTO 04003KT 10SM BKN010 OVC021 05/04 A3007 RMK AO2 CIG 008V013 SLP194 60009 T00500044 10050 20044 53005
KCOE 
33nm S 
220456Z AUTO 02005KT 10SM OVC048 05/04 A3006 RMK AO2 RAB22E37 SLP212 P0000 T00500044
TAF
KCOE 
33nm S 
220342Z 2204/2224 04005KT P6SM SCT004 BKN015 OVC040 TEMPO 2204/2207 4SM -RA BKN004 OVC015 FM220800 17006KT 3SM -RA BR OVC004 FM221600 19005KT 2SM BR SCT001 OVC010 FM221800 17006KT 6SM -RA BR BKN025 OVC050
KSFF 
39nm S 
220341Z 2204/2224 04004KT 6SM BR FEW007 SCT017 OVC050 TEMPO 2204/2207 4SM -RA BR OVC017 FM220700 23003KT 5SM -RA BR OVC005 FM221400 22004KT 2SM BR SCT001 OVC004 FM221600 VRB03KT 3SM -RA BR OVC007 FM221900 18004KT P6SM -RA BKN015 OVC025
NOTAMs
Click for the latest NOTAMs
NOTAMs are issued by the DoD/FAA and will open in a separate window not controlled by AirNav.

 

 
 

Would you like to see your business listed on this page?

 If your business provides an interesting product or service to pilots, flight crews, aircraft, or users of the Valenov Ranch Airport, you should consider listing it here.  To start the listing process, click on the button below
 
Add a business
 

Other Pages about Valenov Ranch Airport

Update a link
 
Copyright © AirNav, LLC. All rights reserved. Privacy Policy  Contact